Weather History for Elkins, WV

Change the Weather History Date:

Tuesday, June 26, 2012

  Actual Average Record
Temperature  
Mean Temperature 57 °F 69 °F  
Max Temperature 73 °F 80 °F 90 °F (1934)
Min Temperature 41 °F 57 °F 38 °F (1979)
Degree Days  
Heating Degree Days 8 1  
Month to date heating degree days 66 52  
Since 1 June heating degree days 66 52  
Since 1 July heating degree days 4773 5849  
Cooling Degree Days 0 4  
Month to date cooling degree days 65 73  
Year to date cooling degree days 128 96  
Since 1 June cooling degree days 65 73  
Growing Degree Days 7 (Base 50)    
Moisture  
Dew Point 44 °F    
Average Humidity 69    
Maximum Humidity 100    
Minimum Humidity 37    
Precipitation  
Precipitation 0.00 in 0.16 in 2.04 in (1978)
Month to date precipitation 1.70 3.75  
Year to date precipitation 19.38 22.96  
Snow  
Snow 0.00 in - - ()
Month to date snowfall 0.0  
Since 1 September snowfall 30.6  
Snow Depth 0.00 in    
Sea Level Pressure  
Sea Level Pressure 30.00 in    
Wind  
Wind Speed 4 mph (NNW)    
Max Wind Speed 16 mph    
Max Gust Speed 23 mph    
Visibility 10 miles    
Events      
T = Trace of Precipitation, MM = Missing Value Source: NWS Daily Summary

Daily Weather History Graph

Daily Weather History Graph

Search for Another Location

Airport:

Trip Planner

Search our weather history database for the weather conditions in past years. The results will help you decide how hot, cold, wet, or windy it might be!

Date:

Astronomy

Jun. 26, 2012 Rise Set
Actual Time 5:55 AM EDT 8:48 PM EDT
Civil Twilight 5:23 AM EDT 9:20 PM EDT
Nautical Twilight 4:43 AM EDT 10:01 PM EDT
Astronomical Twilight 3:57 AM EDT 10:47 PM EDT
Moon 1:06 PM EDT (6/26) 12:20 AM EDT (6/26)
Length of Visible Light 15h 56m
Length of Day
14h 52m
Waxing Crescent, 45% of the Moon is Illuminated
Jun 26
Waxing Crescent
Jun 26
First Quarter
Jul 3
Full
Jul 10
Last Quarter
Jul 19
New

Hourly Weather History & Observations

Time (EDT) Temp. Dew Point Humidity Pressure Visibility Wind Dir Wind Speed Gust Speed Precip Events Conditions
12:51 AM 50.0 °F 43.0 °F 77% 29.99 in 10.0 mi Calm Calm - N/A   Clear
1:51 AM 46.9 °F 43.0 °F 86% 29.99 in 10.0 mi Calm Calm - N/A   Clear
2:51 AM 45.0 °F 42.1 °F 90% 29.98 in 10.0 mi Calm Calm - N/A   Clear
3:51 AM 44.1 °F 41.0 °F 89% 29.98 in 10.0 mi Calm Calm - N/A   Clear
4:51 AM 43.0 °F 39.9 °F 89% 29.99 in 10.0 mi Calm Calm - N/A   Clear
5:51 AM 42.1 °F 39.9 °F 92% 30.00 in 10.0 mi Calm Calm - N/A   Clear
6:51 AM 43.0 °F 42.1 °F 97% 30.02 in 10.0 mi Calm Calm - N/A   Clear
7:51 AM 50.0 °F 45.0 °F 83% 30.03 in 10.0 mi Calm Calm - N/A   Clear
8:51 AM 55.9 °F 46.0 °F 69% 30.04 in 10.0 mi Calm Calm - N/A   Clear
9:51 AM 59.0 °F 45.0 °F 60% 30.04 in 10.0 mi North 3.5 mph - N/A   Partly Cloudy
10:51 AM 63.0 °F 45.0 °F 52% 30.04 in 10.0 mi NW 10.4 mph - N/A   Scattered Clouds
11:51 AM 66.0 °F 44.1 °F 45% 30.03 in 10.0 mi North 9.2 mph - N/A   Partly Cloudy
12:51 PM 66.0 °F 44.1 °F 45% 30.02 in 10.0 mi North 12.7 mph 16.1 mph N/A   Scattered Clouds
1:51 PM 68.0 °F 45.0 °F 43% 30.01 in 10.0 mi NNW 9.2 mph 18.4 mph N/A   Mostly Cloudy
2:51 PM 71.1 °F 45.0 °F 39% 29.98 in 10.0 mi NNW 10.4 mph - N/A   Partly Cloudy
3:51 PM 69.1 °F 43.0 °F 39% 29.96 in 10.0 mi NNW 11.5 mph 19.6 mph N/A   Mostly Cloudy
4:51 PM 71.1 °F 44.1 °F 38% 29.96 in 10.0 mi North 8.1 mph - N/A   Mostly Cloudy
5:51 PM 72.0 °F 44.1 °F 37% 29.96 in 10.0 mi NW 9.2 mph - N/A   Mostly Cloudy
6:51 PM 72.0 °F 44.1 °F 37% 29.96 in 10.0 mi North 9.2 mph 17.3 mph N/A   Mostly Cloudy
7:51 PM 69.1 °F 44.1 °F 40% 29.96 in 10.0 mi NW 6.9 mph - N/A   Clear
8:51 PM 59.0 °F 48.0 °F 67% 29.98 in 10.0 mi Calm Calm - N/A   Clear
9:51 PM 55.0 °F 46.9 °F 74% 30.00 in 10.0 mi Calm Calm - N/A   Clear
10:51 PM 53.1 °F 46.9 °F 80% 30.00 in 10.0 mi Calm Calm - N/A   Clear
11:51 PM 50.0 °F 46.0 °F 86% 30.01 in 10.0 mi Calm Calm - N/A   Clear